Find Starlink 34855

NORAD ID: 65416 Int'l Des: 2025-192 Owner: SPXS Country: US Constellation: starlink operational
LEOCIRCULAR

Aktuelle Ansicht

3D-Globus wird geladen...

Über Starlink 34855

Beschreibung wird geladen...

Nächste Überflüge

Passes for default location (London). Set your location on the main map for personalized predictions.

Höhenverlauf

Loading altitude history...

Zweizeiliger Elementsatz

1 65416U 25192N 26146.51225311 .00007453 00000-0 26353-3 0 9991
2 65416 53.1575 231.2627 0001116 80.4633 279.6494 15.30198501 41296
Epoch: 26. Mai 2026 • Age: 9 hours

Aktueller Status

Höhe 489.6 km
Geschwindigkeit 7.62 km/s
Subsatellitenpunkt -41.65°S, 18.32°W
Startdatum 31. Aug. 2025
Alter 0.7 years
Typ internet

Technische Details

Klassifizierung Payload
Masse 575.00 kg
Trockenmasse 530.00 kg
Gesamtmasse 575.00 kg
Länge 0.30 m
Durchmesser 4.10 m
Spannweite 29.00 m
Form Box + pan
Hersteller SPXS
Bus-Typ Starlink V2MO
Phasenstatus In Orbit
Besitzer/Staat SPXS/US

Most Searched